CZ-6A DEB, 54965

Orbit data source: Space-Track

CZ-6A DEB, 54965 is space debris in SSO originally from a launch on Fri, 11 Nov 2022 UTC launched from the Taiyaun Space Center, China (TSC). Debris objects in space refer to the collection of defunct objects orbiting the Earth. Examples of debris include non-operational satellites, rocket bodies, and fragments generated from explosions, collisions, or faulty payload assembly.

Loading next visibility...
Identifier
54965, 2022-151TE
Orbit
SSO
Country
Flag of CNCN / PRC
Related business
Manufacturer
SAST
Mission
Spacecraft
Bus & Motor
Unknown
Mass
Unknown
Launch date (UTC)
2022-11-11 (4 years ago)
Launch vehicle
Unknown
Launch site
Taiyaun Space Center, China (TSC)
Object type
Payload
Rocket body
Debris
Shape & HBR
Unknown shape, 0.1 m
Radar Cross Section
Medium (>0.1 m² and <1 m²)

Expand to show TLE details & history
Last TLE update: 2 days ago

TLE from 2 days ago
0 CZ-6A DEB
1 54965U 22151TE  26171.39656152  .00000587  00000-0  37140-3 0  9992
2 54965  98.8287 154.2369 0087321  23.7243 336.7915 14.06011364184615
Epoch: 2026-06-20T09:31Z
TLE epoch observation values (Epoch: 2026-06-20T09:31:02.915Z)
Latitude
0.00007°
Longitude
102.86296°
Altitude
817.826 km
Speed
7.474 km/s
True Right ascension
10h 16m 56s
True Declination
0° 00' 00"
Sunlit
Object was in daylight at epoch
Visualization orbit readout
Latitude
Unknown
Longitude
Unknown
Altitude
Unknown
Speed
Unknown
Apparent Right ascension
Unknown
Apparent Declination
Unknown
Sunlit
N/A
Visualization observer readout
Local Sidereal Time
21:34:56
Azimuth
Unknown
Elevation
Unknown
Doppler factor
Unknown
Orbital elements
Apogee altitude
933.529 km
Perigee altitude
806.942 km
Semi-major axis
7,248.373 km
Eccentricity
0.00873
Inclination
98.8287°
RAAN
154.2369°
Arg. of periapsis
23.7243°
True anomaly
336.39318°
Mean anomaly
336.7915°
Eccentric anomaly
336.59274°
Mean motion
3.51708 °/min
Orbital period
102.36 mins
BSTAR
0.0003714
Loading maneuver chart data...
Computing Atmospheric mass density...
Loading historical data...
Loading historical data...
Loading historical data...
Loading historical data...
Loading historical data...
Loading historical data...
Loading historical data...

Documentation

Showing up to 5 results
|